User: anonymous
Location: Albany
(35.0000°S, 118.0000°E)
Time: 21:04:38
(UTC-04:00)
Language:

Transit 2A - Orbit

View from above orbital plane
View from above orbital plane
View from above satellite
View from above satellite

Ground track
Ground track

The orbit data is extracted from the following two-line orbital elements,

1 00045U 60007A   14205.80035591 -.00000007  00000-0  25315-4 0  1939
2 00045 066.6960 297.4241 0249807 083.3567 050.2365 14.33017709813889
Epoch (UTC): 24 July 2014 19:12:30
Eccentricity: 0.0249807
inclination: 66.6960°
perigee height: 603 km
apogee height: 960 km
right ascension of ascending node: 297.4241°
argument of perigee: 83.3567°
revolutions per day: 14.33017709
mean anomaly at epoch: 50.2365°
orbit number at epoch: 81388

The dashed part of the orbit path shows where the satellite is in the earth's shadow,  

DLR